Presure
112 115 115 111 100 115 116 112 114 112 111 126 127 110 122 115 123 136 137 94 128 139 132 123 90 123 147 130 107 108 117 113 125 99 102 110 101 117 116 96 124 118 106
101 116 117 116 121 118 119 119 123 127 132 133 129 136 140 144 142 148 221 187 129 129 82 255 230 130 132 242 128 149 136 147 103 108 145 134 106 145 150 94 132 147 110
132 129 126 115 117 119 125 131 126 119 123 136 130 125 245 237 230 161 233 174 240 247 102 146 145 134 228 136 209 132 125 174 167 148 238 195 169 153 153 157 123 107 136
123 112 120 128 125 124 120 130 129 137 140 125 187 231 230 213 221 234 203 233 170 124 123 187 203 222 202 256 130 214 203 224 236 138 220 220 243 99 216 236 180 171 172
126 131 123 134 138 128 134 132 173 217 126 145 188 204 232 232 222 212 224 179 180 75 229 219 209 206 228 219 226 187 169 195 193 223 243 253 245 230 238 157 232 227 221
131 133 141 135 135 135 147 236 209 144 215 218 136 166 243 219 232 248 246 234 223 90 231 228 209 236 129 216 222 228 228 227 249 151 212 204 150 151 79 219 228 152 233
133 226 223 118 192 226 228 223 207 205 213 219 208 223 218 290 259 239 246 235 232 216 234 236 213 205 221 197 215 209 211 229 243 207 95 226 122 212 154 156 150 231 229
223 152 217 225 217 222 220 210 183 169 214 188 205 151 211 183 232 231 202 206 210 222 214 228 218 221 195 218 204 207 185 207 190 211 171 234 168 147 160 217 184 227 182
224 223 217 222 227 223 207 203 214 171 150 209 147 220 207 220 277 263 105 220 205 199 205 208 229 213 200 204 198 196 208 207 228 191 160 200 192 188 216 225 230 220 233
213 215 74 206 216 209 192 164 154 201 201 146 215 212 94 217 243 257 227 237 215 234 209 218 194 189 212 191 216 207 214 197 199 195 192 189 221 162 228 197 218 225 216
162 214 190 205 209 169 203 212 188 183 203 217 177 210 121 217 246 263 244 234 220 228 223 196 196 193 196 189 201 199 193 195 207 207 210 149 192 211 217 145 223 224 217
185 214 203 204 168 201 202 156 194 195 206 202 205 109 202 213 242 254 224 229 220 208 216 222 213 228 206 194 195 186 203 210 204 198 215 219 209 209 190 237 227 215 206
203 205 202 150 175 204 196 170 209 202 210 191 192 149 121 216 197 259 208 207 208 211 220 208 225 214 242 216 209 199 205 208 204 207 208 205 204 197 233 198 199 156 182
134 143 139 187 204 183 195 197 159 192 196 211 227 204 204 212 200 264 232 204 194 192 197 194 202 233 216 217 215 211 208 206 195 209 204 199 196 161 201 189 185 198 214
171 197 194 193 202 196 200 198 201 174 205 162 194 219 211 211 199 266 245 216 219 202 204 193 219 163 214 212 209 212 206 195 206 191 197 196 194 182 187 198 192 189 174
194 198 196 191 195 203 195 196 203 189 184 174 207 198 231 208 207 267 223 225 214 209 193 214 243 240 227 206 205 204 205 198 203 191 198 195 186 183 174 177 176 173 174
192 193 197 184 199 195 191 195 124 205 87 215 208 196 215 225 197 258 238 225 213 197 193 220 238 249 238 205 199 203 206 190 188 193 188 178 181 182 192 170 175 178 173
193 191 205 193 185 190 190 199 196 198 197 213 210 216 217 208 248 250 241 231 221 195 230 249 242 259 227 219 209 203 196 211 190 186 187 174 173 173 173 174 166 180 175
191 196 194 185 174 188 183 184 191 175 193 193 195 213 217 195 247 245 233 226 212 200 223 221 234 253 242 204 194 196 194 201 183 178 191 181 173 167 179 170 165 172 165
186 185 183 171 184 189 149 197 177 208 200 188 213 211 216 222 243 240 232 225 216 183 236 244 269 205 202 208 194 203 201 194 184 188 185 173 169 174 172 173 170 163 169
187 189 172 198 182 152 172 184 192 186 200 180 193 206 208 203 240 236 230 223 202 193 226 345 221 230 233 215 208 200 198 198 184 182 186 179 170 183 172 179 181 172 182
187 190 186 172 176 180 184 173 184 181 195 193 203 212 203 225 239 229 226 221 204 196 241 221 243 211 241 223 207 207 203 195 188 182 178 173 178 184 184 179 166 177 179
170 174 188 179 176 187 184 172 194 178 199 198 197 216 219 229 225 222 224 217 200 202 231 269 243 210 219 200 210 213 211 192 191 176 179 181 186 180 179 183 177 170 179
189 184 191 182 178 177 182 155 188 175 190 162 202 208 213 233 232 222 219 216 201 233 243 244 225 239 211 233 214 207 204 185 178 177 179 174 179 189 179 192 164 178 157
184 189 181 178 162 180 182 189 190 201 199 198 203 215 216 232 235 234 221 213 204 229 248 238 219 210 228 216 226 206 193 187 192 185 182 183 177 187 187 169 170 189 182
174 181 195 192 194 194 146 193 148 200 193 202 203 211 229 207 228 251 220 215 203 202 216 226 214 210 226 204 218 212 196 202 183 184 185 182 182 184 196 200 201 187 186
Wind_Speed
47 51 53 50 44 54 55 52 51 49 46 59 59 43 53 51 56 63 64 42 59 63 61 51 29 53 67 62 50 47 52 48 58 43 44 49 45 53 55 44 60 55 49
47 53 55 54 58 57 59 61 64 67 70 69 63 67 68 69 67 67 60 55 59 59 17 33 56 61 61 53 62 71 67 73 43 49 73 70 45 78 78 44 67 77 46
62 61 60 55 57 59 65 69 65 62 62 72 64 61 42 44 47 72 49 47 45 39 40 59 60 61 45 61 64 64 59 73 78 59 66 84 81 78 80 84 59 42 74
58 55 58 63 62 62 64 70 70 75 72 62 61 44 45 55 45 41 51 45 61 58 31 68 61 50 64 30 64 54 56 63 51 50 59 59 52 40 46 61 92 88 90
63 67 61 69 71 70 72 69 68 46 63 50 48 47 45 44 49 47 42 50 58 22 40 43 53 57 39 45 38 55 51 58 60 48 32 24 35 47 44 61 51 62 72
69 70 74 71 71 74 78 42 48 66 48 50 36 67 41 47 41 36 40 41 41 32 40 41 54 40 44 55 50 46 44 44 34 64 61 61 70 69 24 62 46 73 51
71 52 55 50 42 49 44 40 49 54 50 47 48 44 44 37 38 36 36 39 38 44 35 35 48 55 51 64 59 56 57 40 29 40 35 47 26 59 69 71 73 45 49
59 78 55 53 51 47 44 42 46 67 47 58 50 65 44 36 47 42 49 50 45 36 42 36 43 41 57 52 58 54 52 49 47 39 38 38 59 65 64 49 59 43 54
56 52 53 53 50 45 45 45 39 63 63 50 61 47 51 40 35 35 33 45 49 47 45 46 39 42 52 55 57 53 48 41 36 37 57 42 46 51 41 42 39 42 38
58 51 25 55 51 46 52 68 69 51 50 62 47 46 46 44 44 34 41 36 45 41 46 41 51 47 48 57 52 53 45 42 44 37 43 47 35 33 37 45 38 36 33
63 51 57 56 52 64 48 41 54 63 49 45 48 48 49 46 40 33 32 35 42 40 36 48 52 52 54 56 54 50 47 44 45 38 37 57 42 29 32 32 31 30 29
61 52 51 54 46 51 52 58 52 52 47 46 47 50 48 45 41 31 32 33 39 40 37 42 47 43 55 59 59 52 51 47 35 39 34 29 24 24 27 28 23 21 22
54 52 52 70 59 50 51 53 46 47 45 55 52 51 44 45 43 33 30 34 33 34 35 41 42 46 38 48 51 55 51 41 38 40 28 22 21 26 21 23 23 27 38
65 69 67 55 53 57 48 49 49 48 48 50 46 50 50 46 43 34 36 37 39 39 35 37 41 39 43 41 46 48 49 43 30 33 23 18 18 20 20 25 27 26 19
58 56 55 54 52 46 48 53 46 52 50 42 52 48 51 47 42 35 34 38 38 38 39 39 43 33 44 43 41 47 41 32 34 28 21 19 18 26 23 22 24 25 36
57 55 56 52 50 49 46 49 50 48 52 52 52 53 46 47 43 36 34 35 35 33 37 38 39 38 41 44 44 42 38 31 28 25 20 18 22 25 32 29 29 34 36
59 59 54 55 51 45 46 48 27 54 24 52 46 52 49 44 45 37 34 36 34 32 38 38 35 34 38 43 46 45 37 33 28 27 21 27 23 24 22 35 31 29 37
58 61 47 55 48 43 47 51 53 48 47 46 48 47 51 49 41 37 33 35 31 31 33 29 31 31 39 42 49 47 32 42 30 27 23 32 28 29 28 32 37 32 37
58 57 40 50 57 46 46 50 48 42 44 48 46 46 50 46 44 36 32 34 27 29 33 30 29 32 37 47 43 43 34 38 33 32 27 26 31 35 33 37 37 35 40
54 53 48 54 62 48 40 53 43 56 46 47 52 47 48 54 46 37 33 34 28 31 35 30 30 33 36 47 45 49 47 38 34 35 29 32 36 34 35 40 43 43 44
56 55 58 56 56 61 58 48 44 52 49 48 44 46 45 51 49 41 35 33 28 28 33 30 30 33 40 45 53 47 39 41 38 35 35 38 37 45 40 47 45 42 40
56 58 57 60 57 60 53 55 46 50 52 49 49 49 44 58 47 41 37 33 26 26 28 29 30 37 37 48 53 54 50 45 43 38 37 39 40 42 43 41 43 38 41
65 59 60 60 59 66 58 54 53 53 53 56 48 52 53 51 42 39 40 34 25 29 29 26 29 36 37 43 54 57 52 45 48 39 41 43 44 40 38 42 36 43 39
55 59 57 61 61 63 65 55 56 53 52 55 54 47 52 51 40 39 43 36 23 33 28 30 31 30 35 33 57 54 48 44 42 42 44 41 41 42 39 45 46 42 49
60 59 61 63 53 61 66 69 61 58 57 56 54 55 55 56 39 40 43 38 22 29 25 31 30 34 29 34 41 57 44 43 46 51 48 45 39 47 46 43 48 36 39
70 64 64 62 62 66 59 71 40 59 58 59 55 48 60 46 38 37 43 37 22 26 24 29 33 33 35 39 41 53 52 52 47 48 48 45 44 47 51 43 39 34 37
Wind_Direction
270 271 271 272 273 275 276 275 277 273 275 279 278 271 276 279 279 280 280 274 276 278 277 277 272 269 268 271 279 278 274 279 274 279 277 279 279 276 278 273 280 281 276
268 270 271 272 275 275 277 278 279 281 281 281 282 284 283 282 280 279 276 278 278 276 290 279 268 275 273 264 273 265 269 267 279 280 272 276 274 275 274 282 280 278 287
275 275 275 271 273 277 279 278 279 278 280 283 286 284 297 285 279 283 277 277 276 276 283 277 276 277 273 276 263 272 277 266 267 276 261 264 268 271 272 271 281 285 279
274 267 274 276 277 276 274 278 278 278 279 283 286 291 291 288 283 282 279 273 275 277 280 272 270 264 266 272 276 267 265 260 259 270 262 267 262 276 263 263 269 272 271
275 276 274 276 277 276 277 277 282 286 280 288 288 296 295 290 288 280 275 276 275 298 267 262 264 268 250 252 253 269 270 270 269 264 273 251 252 260 257 271 261 266 269
277 277 277 276 277 276 277 292 285 282 287 289 277 284 306 290 292 280 274 267 269 285 265 257 268 244 275 256 254 250 252 256 258 263 265 264 264 266 266 268 260 269 263
276 287 285 270 283 290 291 291 284 285 290 296 296 302 295 301 291 276 275 266 264 266 267 249 260 265 250 272 262 271 269 256 260 269 273 265 274 271 270 269 269 264 269
285 278 286 285 287 287 287 289 285 283 296 290 293 285 296 285 288 283 277 275 272 261 262 253 256 250 269 248 265 271 264 267 271 274 279 275 272 273 272 274 273 272 274
282 286 286 286 285 284 285 286 295 285 283 299 285 306 301 302 294 283 271 265 268 271 267 263 254 254 260 258 267 269 266 262 267 268 273 271 270 268 278 274 269 274 266
279 283 281 284 285 285 280 281 282 289 293 285 305 302 262 303 291 288 280 270 264 266 260 256 268 266 255 269 259 265 265 271 268 266 255 268 288 278 274 268 271 267 272
274 281 279 282 285 279 283 292 283 283 297 306 289 301 277 308 298 287 277 271 263 267 259 260 262 267 263 269 266 266 269 268 266 278 268 275 278 275 273 276 267 265 267
273 277 277 280 276 284 288 283 284 290 299 299 299 276 300 305 307 289 282 271 264 263 262 255 255 253 256 261 264 269 267 267 271 271 290 287 279 277 274 266 263 257 261
272 275 275 276 278 286 290 287 295 296 303 291 294 286 284 303 298 285 273 272 271 264 255 256 256 256 251 246 251 262 267 273 268 275 278 273 278 264 259 261 259 275 268
267 271 273 273 280 278 290 290 283 292 298 306 306 299 302 299 300 288 271 268 275 274 272 272 269 258 252 246 247 255 261 265 263 270 275 271 258 280 258 258 261 261 257
265 269 271 273 279 282 289 291 295 285 301 292 299 301 300 298 298 294 272 269 264 265 271 272 265 268 248 246 245 249 253 251 263 248 260 259 262 252 258 254 261 264 269
263 267 271 273 277 285 285 291 298 292 293 286 304 299 305 296 296 296 273 270 267 266 273 274 260 250 238 244 243 247 248 250 256 253 259 255 243 251 256 261 264 272 275
263 264 268 272 279 281 286 291 300 301 302 305 300 299 298 300 298 296 271 270 269 268 269 268 264 248 227 235 241 247 246 239 243 257 241 247 253 254 269 261 268 280 277
258 263 268 276 271 280 283 292 296 299 303 303 300 305 303 300 303 294 272 272 275 266 279 280 264 241 222 224 229 241 236 253 240 242 243 249 251 260 259 266 269 279 273
256 266 269 275 270 275 277 290 290 292 296 297 303 307 310 298 303 293 273 276 273 272 278 264 259 230 220 230 238 242 243 242 237 242 249 246 254 258 263 260 265 268 273
258 261 262 265 273 281 277 291 286 300 297 291 306 311 313 315 305 291 270 276 275 270 281 275 246 234 232 227 238 237 240 241 239 238 237 241 252 253 256 260 259 266 267
258 261 262 263 272 281 274 283 290 289 296 295 294 306 307 304 305 289 269 279 268 272 276 288 247 235 221 224 228 242 245 238 235 234 238 243 248 256 250 257 260 264 273
259 264 268 267 270 273 276 276 283 287 289 293 299 306 300 312 301 288 269 277 270 276 280 262 232 234 216 215 228 235 236 236 236 234 239 240 247 245 251 257 263 263 266
259 262 266 269 271 276 278 279 284 281 291 292 292 307 311 311 292 284 270 277 267 278 279 268 227 233 222 235 226 227 235 233 236 236 242 248 250 252 258 261 251 261 263
253 258 263 262 266 273 278 264 280 283 283 282 296 303 305 309 291 279 268 276 273 282 279 233 235 225 229 223 220 231 230 231 237 241 244 247 253 260 261 263 252 262 274
251 257 255 261 262 268 274 280 282 286 286 287 292 298 302 304 285 279 264 274 277 278 282 231 236 232 214 218 216 228 232 231 237 241 244 247 254 260 264 250 258 260 257
254 253 264 262 267 272 265 274 267 282 283 288 291 294 303 288 277 263 260 268 274 270 267 224 241 238 222 229 213 220 229 233 237 243 246 251 252 255 258 270 273 261 262